When you browse on this site, cookies collect data to enhance your experience and personalize the content and advertising you see.
Visit our Privacy Policy to learn more. By continuing to use the site, you agree to this use of cookies and data.
  • In Hungary
  • List of Countries
  • For 7 days
  • Water Temperature
  • Weather Map
  • News
  • Weather Widgets
  • user-avatar
    Login

    Hourly Weather Berezka

    Today, 6 April, Monday

    Time Temperature Precipitation Wind Pressure Humidity
    00:00 +2°C° 0 mm 2 mps 732 mmHg 67%
    01:00 +3°C° 0 mm 1 mps 731 mmHg 69%
    02:00 +3°C° 0 mm 1 mps 731 mmHg 69%
    03:00 +3°C° 0 mm 1 mps 731 mmHg 69%
    04:00 +2°C° 0 mm 1 mps 731 mmHg 69%
    05:00 +4°C° 0 mm 1 mps 732 mmHg 64%
    06:00 +5°C° 0 mm 1 mps 732 mmHg 60%
    07:00 +7°C° 0 mm 1 mps 732 mmHg 55%
    08:00 +8°C° 0 mm 2 mps 733 mmHg 49%
    09:00 +10°C° 0 mm 3 mps 733 mmHg 43%
    10:00 +12°C° 0 mm 4 mps 733 mmHg 37%
    11:00 +12°C° 0 mm 4 mps 733 mmHg 37%
    12:00 +13°C° 0 mm 4 mps 733 mmHg 38%
    13:00 +13°C° 0 mm 4 mps 732 mmHg 38%
    14:00 +13°C° 0 mm 3 mps 732 mmHg 38%
    15:00 +13°C° 0 mm 3 mps 732 mmHg 39%
    16:00 +13°C° 0 mm 3 mps 732 mmHg 39%
    17:00 +10°C° 0 mm 2 mps 732 mmHg 45%
    18:00 +8°C° 0 mm 2 mps 732 mmHg 51%
    19:00 +6°C° 0 mm 2 mps 731 mmHg 57%
    20:00 +6°C° 0 mm 2 mps 732 mmHg 58%
    21:00 +5°C° 0 mm 2 mps 732 mmHg 58%
    22:00 +5°C° 0 mm 2 mps 733 mmHg 58%
    23:00 +4°C° 0 mm 2 mps 732 mmHg 59%

    Tomorrow, 7 April, Tuesday

    Time Temperature Precipitation Wind Pressure Humidity
    00:00 +4°C° 0 mm 2 mps 732 mmHg 60%
    01:00 +4°C° 0 mm 2 mps 732 mmHg 61%
    02:00 +4°C° 0 mm 2 mps 732 mmHg 62%
    03:00 +3°C° 0 mm 2 mps 732 mmHg 62%
    04:00 +3°C° 0 mm 2 mps 733 mmHg 62%
    05:00 +5°C° 0 mm 2 mps 733 mmHg 58%
    06:00 +6°C° 0 mm 2 mps 733 mmHg 55%
    07:00 +8°C° 0 mm 1 mps 733 mmHg 51%
    08:00 +9°C° 0 mm 2 mps 733 mmHg 46%
    09:00 +12°C° 0 mm 2 mps 733 mmHg 41%
    10:00 +14°C° 0 mm 2 mps 733 mmHg 36%
    11:00 +15°C° 0 mm 2 mps 733 mmHg 34%
    12:00 +16°C° 0 mm 2 mps 733 mmHg 32%
    13:00 +17°C° 0 mm 2 mps 733 mmHg 31%
    14:00 +17°C° 0 mm 2 mps 733 mmHg 33%
    15:00 +16°C° 0 mm 2 mps 732 mmHg 35%
    16:00 +16°C° 0 mm 2 mps 732 mmHg 37%
    17:00 +13°C° 0 mm 1 mps 732 mmHg 45%
    18:00 +11°C° 0 mm 1 mps 732 mmHg 52%
    19:00 +8°C° 0 mm 0 mps 731 mmHg 60%
    20:00 +7°C° 0 mm 0 mps 732 mmHg 60%
    21:00 +7°C° 0 mm 0 mps 732 mmHg 60%
    22:00 +7°C° 0 mm 1 mps 732 mmHg 60%
    23:00 +6°C° 0 mm 0 mps 732 mmHg 61%

    Day after tomorrow, 8 April, Wednesday

    Time Temperature Precipitation Wind Pressure Humidity
    00:00 +6°C° 0 mm 0 mps 732 mmHg 61%
    01:00 +5°C° 0 mm 0 mps 731 mmHg 62%
    02:00 +5°C° 0 mm 0 mps 731 mmHg 63%
    03:00 +5°C° 0 mm 0 mps 731 mmHg 64%
    04:00 +5°C° 0 mm 0 mps 731 mmHg 65%
    05:00 +6°C° 0 mm 0 mps 731 mmHg 62%
    06:00 +8°C° 0 mm 0 mps 731 mmHg 60%
    07:00 +9°C° 0 mm 0 mps 731 mmHg 58%
    08:00 +12°C° 0 mm 0 mps 731 mmHg 51%
    09:00 +14°C° 0 mm 0 mps 731 mmHg 44%
    10:00 +17°C° 0 mm 0 mps 731 mmHg 37%
    11:00 +19°C° 0 mm 1 mps 731 mmHg 35%
    12:00 +20°C° 0 mm 1 mps 730 mmHg 33%
    13:00 +20°C° 0 mm 1 mps 730 mmHg 31%
    14:00 +19°C° 0 mm 1 mps 729 mmHg 33%
    15:00 +19°C° 0 mm 1 mps 729 mmHg 36%
    16:00 +17°C° 0 mm 2 mps 728 mmHg 38%
    17:00 +15°C° 0 mm 1 mps 728 mmHg 46%
    18:00 +13°C° 0 mm 1 mps 727 mmHg 55%
    19:00 +10°C° 0 mm 1 mps 727 mmHg 63%
    20:00 +10°C° 0 mm 1 mps 727 mmHg 65%
    21:00 +9°C° 0 mm 1 mps 727 mmHg 66%
    22:00 +9°C° 0 mm 1 mps 727 mmHg 68%
    23:00 +9°C° 0 mm 1 mps 727 mmHg 68%

    9 April, Thursday

    Time Temperature Precipitation Wind Pressure Humidity
    00:00 +8°C° 0 mm 1 mps 726 mmHg 69%
    01:00 +8°C° 0 mm 1 mps 726 mmHg 69%
    02:00 +8°C° 0 mm 1 mps 726 mmHg 70%
    03:00 +7°C° 0 mm 1 mps 726 mmHg 70%
    04:00 +7°C° 0 mm 1 mps 726 mmHg 71%
    05:00 +8°C° 0 mm 1 mps 725 mmHg 67%
    06:00 +10°C° 0 mm 1 mps 725 mmHg 64%
    07:00 +11°C° 0 mm 1 mps 725 mmHg 60%
    08:00 +13°C° 0 mm 2 mps 725 mmHg 53%
    09:00 +14°C° 0 mm 2 mps 725 mmHg 47%
    10:00 +16°C° 0 mm 3 mps 725 mmHg 40%
    11:00 +17°C° 0 mm 3 mps 725 mmHg 39%
    12:00 +17°C° 0 mm 3 mps 725 mmHg 38%
    13:00 +18°C° 0 mm 3 mps 724 mmHg 37%
    14:00 +17°C° 0 mm 3 mps 724 mmHg 38%
    15:00 +17°C° 0 mm 3 mps 723 mmHg 40%
    16:00 +17°C° 0 mm 3 mps 723 mmHg 42%
    17:00 +14°C° 0 mm 3 mps 723 mmHg 49%
    18:00 +13°C° 0 mm 2 mps 723 mmHg 56%
    19:00 +10°C° 0 mm 2 mps 722 mmHg 64%
    20:00 +9°C° 0 mm 2 mps 723 mmHg 65%
    21:00 +10°C° 0 mm 1 mps 723 mmHg 66%
    22:00 +9°C° 0 mm 1 mps 723 mmHg 68%
    23:00 +9°C° 0 mm 1 mps 723 mmHg 69%

    10 April, Friday

    Time Temperature Precipitation Wind Pressure Humidity
    00:00 +9°C° 0 mm 1 mps 723 mmHg 71%
    01:00 +8°C° 0 mm 1 mps 722 mmHg 73%
    02:00 +8°C° 0 mm 1 mps 723 mmHg 74%
    03:00 +9°C° 0 mm 1 mps 723 mmHg 76%
    04:00 +9°C° 0 mm 1 mps 723 mmHg 78%
    05:00 +9°C° 0 mm 1 mps 723 mmHg 77%
    06:00 +9°C° 0 mm 2 mps 724 mmHg 77%
    07:00 +10°C° 0 mm 2 mps 724 mmHg 77%
    08:00 +10°C° 0.1 mm 3 mps 724 mmHg 73%
    09:00 +11°C° 0.1 mm 3 mps 724 mmHg 70%
    10:00 +12°C° 0.1 mm 4 mps 724 mmHg 67%
    11:00 +12°C° 0 mm 4 mps 724 mmHg 61%
    12:00 +13°C° 0 mm 4 mps 724 mmHg 55%
    13:00 +14°C° 0 mm 4 mps 725 mmHg 49%
    14:00 +14°C° 0 mm 4 mps 724 mmHg 48%
    15:00 +13°C° 0 mm 3 mps 724 mmHg 46%
    16:00 +13°C° 0 mm 3 mps 724 mmHg 44%
    17:00 +12°C° 0 mm 2 mps 724 mmHg 49%
    18:00 +10°C° 0 mm 1 mps 724 mmHg 54%
    19:00 +7°C° 0 mm 0 mps 724 mmHg 59%
    20:00 +7°C° 0 mm 1 mps 724 mmHg 59%
    21:00 +7°C° 0 mm 1 mps 724 mmHg 59%
    22:00 +6°C° 0 mm 1 mps 724 mmHg 60%
    23:00 +6°C° 0 mm 1 mps 724 mmHg 60%

    11 April, Saturday

    Time Temperature Precipitation Wind Pressure Humidity
    00:00 +6°C° 0 mm 1 mps 724 mmHg 60%
    01:00 +6°C° 0 mm 1 mps 724 mmHg 60%
    02:00 +6°C° 0 mm 1 mps 724 mmHg 60%
    03:00 +6°C° 0 mm 1 mps 724 mmHg 60%
    04:00 +6°C° 0 mm 1 mps 724 mmHg 60%
    05:00 +7°C° 0 mm 1 mps 724 mmHg 57%
    06:00 +9°C° 0 mm 1 mps 724 mmHg 55%
    07:00 +10°C° 0 mm 1 mps 724 mmHg 53%
    08:00 +12°C° 0 mm 1 mps 724 mmHg 51%
    09:00 +13°C° 0 mm 1 mps 724 mmHg 50%
    10:00 +14°C° 0 mm 2 mps 724 mmHg 49%
    11:00 +15°C° 0 mm 2 mps 724 mmHg 46%
    12:00 +16°C° 0 mm 2 mps 724 mmHg 44%
    13:00 +17°C° 0 mm 2 mps 724 mmHg 42%
    14:00 +17°C° 0 mm 2 mps 724 mmHg 44%
    15:00 +17°C° 0 mm 2 mps 724 mmHg 46%
    16:00 +16°C° 0 mm 2 mps 723 mmHg 49%
    17:00 +15°C° 0 mm 2 mps 723 mmHg 56%
    18:00 +13°C° 0 mm 1 mps 723 mmHg 63%
    19:00 +11°C° 0 mm 1 mps 723 mmHg 70%
    20:00 +11°C° 0 mm 1 mps 723 mmHg 71%
    21:00 +11°C° 0 mm 1 mps 724 mmHg 71%
    22:00 +10°C° 0 mm 1 mps 724 mmHg 72%
    23:00 +10°C° 0 mm 1 mps 724 mmHg 73%
    Show more